Marysville, OH

11:22 AM EDT on April 20, 2018 (GMT -0400)
Marysville

Weather History for KMRT - August, 2013

Change the Weather History Date:

Thursday, August 8, 2013

  Actual Average (KDLZ) Record (KDLZ)
Temperature  
Mean Temperature 74 °F -  
Max Temperature 81 °F 81 °F 96 °F (1941)
Min Temperature 67 °F 59 °F 46 °F (1989)
Cooling Degree Days 9    
Growing Degree Days 24 (Base 50)    
Moisture  
Dew Point 68 °F    
Average Humidity 88    
Maximum Humidity 95    
Minimum Humidity 68    
Precipitation  
Precipitation 1.15 in - - ()
Sea Level Pressure  
Sea Level Pressure 29.95 in    
Wind  
Wind Speed 3 mph (South)    
Max Wind Speed 14 mph    
Max Gust Speed -    
Visibility 5 miles    
Events      
Averages and records for this station are not official NWS values.
T = Trace of Precipitation, MM = Missing Value Source: NWS Daily Summary

Daily Weather History Graph

Daily Weather History Graph

Search for Another Location

Airport or City:

Astronomy

Aug. 08, 2013 Rise Set
Actual Time 6:38 AM EDT 8:39 PM EDT
Civil Twilight 6:08 AM EDT 9:08 PM EDT
Nautical Twilight 5:31 AM EDT 9:45 PM EDT
Astronomical Twilight 4:52 AM EDT 10:24 PM EDT
Moon 8:24 AM EDT (8/8) 9:16 PM EDT (8/8)
Length of Visible Light 15h 00m
Length of Day
14h 01m
Waxing Crescent, 3% of the Moon is Illuminated
Aug 8
Waxing Crescent
Aug 14
First Quarter
Aug 20
Full
Aug 28
Last Quarter
Sep 5
New

Hourly Weather History & Observations

Time (EDT) Temp. Heat Index Dew Point Humidity Pressure Visibility Wind Dir Wind Speed Gust Speed Precip Events Conditions
12:13 AM 72.5 °F - 68.9 °F 88% 29.95 in 5.0 mi SSW 5.8 mph - N/A   Mostly Cloudy
12:33 AM 72.3 °F - 68.9 °F 89% 29.95 in 5.0 mi SSW 5.8 mph - N/A   Scattered Clouds
12:54 AM 72.5 °F - 69.3 °F 90% 29.95 in 5.0 mi SW 5.8 mph - N/A   Mostly Cloudy
1:14 AM 71.8 °F - 68.9 °F 91% 29.96 in 5.0 mi WSW 3.5 mph - N/A   Mostly Cloudy
1:33 AM 71.6 °F - 68.9 °F 91% 29.95 in 4.0 mi SW 4.6 mph - N/A   Mostly Cloudy
1:54 AM 71.6 °F - 68.9 °F 91% 29.95 in 4.0 mi SW 4.6 mph - N/A   Scattered Clouds
2:14 AM 71.1 °F - 68.5 °F 92% 29.95 in 3.0 mi SW 3.5 mph - N/A   Clear
2:33 AM 70.2 °F - 68.0 °F 93% 29.95 in 3.0 mi Calm Calm - N/A   Scattered Clouds
2:54 AM 69.4 °F - 67.1 °F 92% 29.95 in 0.8 mi Calm Calm - N/A   Unknown
3:14 AM 68.7 °F - 66.6 °F 93% 29.94 in 0.8 mi Calm Calm - N/A   Unknown
3:33 AM 69.3 °F - 67.5 °F 94% 29.94 in 2.0 mi Calm Calm - N/A   Scattered Clouds
3:54 AM 67.1 °F - 65.3 °F 94% 29.95 in 0.5 mi SW 3.5 mph - N/A   Mostly Cloudy
4:14 AM 68.4 °F - 66.6 °F 94% 29.95 in 1.2 mi SW 3.5 mph - N/A   Mostly Cloudy
4:33 AM 68.5 °F - 66.7 °F 94% 29.95 in 1.0 mi Calm Calm - N/A   Mostly Cloudy
4:54 AM 68.0 °F - 66.2 °F 94% 29.94 in 0.2 mi Calm Calm - N/A   Overcast
5:13 AM 68.2 °F - 66.4 °F 94% 29.94 in 0.5 mi Calm Calm - N/A   Overcast
5:33 AM 68.9 °F - 67.1 °F 94% 29.94 in 1.5 mi SW 4.6 mph - N/A   Mostly Cloudy
5:54 AM 69.8 °F - 68.0 °F 94% 29.95 in 2.5 mi Calm Calm - N/A   Mostly Cloudy
6:13 AM 69.4 °F - 67.6 °F 94% 29.95 in 2.0 mi Calm Calm - N/A   Overcast
6:33 AM 68.9 °F - 67.1 °F 94% 29.94 in 0.5 mi Calm Calm - N/A   Mostly Cloudy
6:53 AM 67.6 °F - 66.2 °F 95% 29.94 in 0.2 mi Calm Calm - N/A   Mostly Cloudy
7:13 AM 67.1 °F - 65.3 °F 94% 29.94 in 0.2 mi Calm Calm - N/A   Overcast
7:34 AM 67.1 °F - 65.5 °F 95% 29.95 in 0.2 mi Calm Calm - N/A   Overcast
7:53 AM 69.4 °F - 67.6 °F 94% 29.94 in 0.2 mi Calm Calm - N/A   Overcast
8:13 AM 70.9 °F - 69.1 °F 94% 29.95 in 2.0 mi Calm Calm - N/A   Scattered Clouds
8:34 AM 72.5 °F - 70.7 °F 94% 29.96 in 4.0 mi Calm Calm - N/A   Mostly Cloudy
8:53 AM 72.5 °F - 70.7 °F 94% 29.96 in 4.0 mi Calm Calm - N/A   Mostly Cloudy
9:13 AM 73.4 °F - 71.4 °F 93% 29.96 in 4.0 mi Calm Calm - N/A   Mostly Cloudy
9:34 AM 73.9 °F - 70.9 °F 90% 29.97 in 4.0 mi South 3.5 mph - N/A   Mostly Cloudy
9:53 AM 74.3 °F - 70.2 °F 87% 29.96 in 5.0 mi South 3.5 mph - N/A   Overcast
10:13 AM 75.0 °F - 69.6 °F 83% 29.97 in 5.0 mi Calm Calm - N/A   Overcast
10:34 AM 75.6 °F - 69.4 °F 81% 29.97 in 7.0 mi Calm Calm - N/A   Overcast
10:53 AM 75.4 °F - 69.6 °F 82% 29.98 in 5.0 mi SSW 3.5 mph - N/A   Overcast
11:13 AM 76.6 °F - 70.2 °F 80% 29.99 in 5.0 mi South 5.8 mph - N/A   Overcast
11:34 AM 77.9 °F - 70.3 °F 77% 29.99 in 5.0 mi South 4.6 mph - N/A   Overcast
11:53 AM 78.8 °F - 70.9 °F 77% 29.98 in 7.0 mi SSW 4.6 mph - N/A   Overcast
12:13 PM 79.9 °F - 70.2 °F 72% 29.97 in 7.0 mi South 6.9 mph - N/A   Overcast
12:34 PM 78.3 °F - 70.0 °F 76% 29.96 in 7.0 mi South 8.1 mph - N/A   Overcast
12:53 PM 81.0 °F 84.7 °F 70.7 °F 71% 29.96 in 7.0 mi SW 9.2 mph - N/A   Overcast
1:13 PM 81.0 °F 84.7 °F 70.7 °F 71% 29.96 in 7.0 mi SW 5.8 mph - N/A   Overcast
1:34 PM 81.5 °F 85.1 °F 70.0 °F 68% 29.96 in 7.0 mi SSW 6.9 mph - N/A   Mostly Cloudy
1:53 PM 81.0 °F 84.4 °F 69.8 °F 69% 29.95 in 7.0 mi WSW 4.6 mph - N/A   Mostly Cloudy
2:13 PM 79.0 °F - 70.0 °F 74% 29.94 in 7.0 mi Calm Calm - N/A   Overcast
2:34 PM 72.5 °F - 68.5 °F 87% 29.95 in - NE 8.1 mph - 0.68 in   Unknown
2:53 PM 72.3 °F - 68.5 °F 88% 29.94 in 7.0 mi East 8.1 mph - 0.90 in   Overcast
3:13 PM 74.3 °F - 69.1 °F 84% 29.94 in 10.0 mi East 13.8 mph - N/A   Overcast
3:34 PM 72.9 °F - 68.0 °F 85% 29.94 in 10.0 mi East 12.7 mph - N/A   Overcast
3:53 PM 72.9 °F - 67.8 °F 84% 29.95 in 10.0 mi NE 6.9 mph - N/A   Overcast
4:13 PM 71.2 °F - 66.7 °F 86% 29.97 in 7.0 mi NNE 4.6 mph - 0.01 in   Overcast
4:34 PM 70.5 °F - 67.6 °F 91% 29.96 in 0.5 mi ENE 6.9 mph - 0.25 in   Overcast
4:53 PM 71.8 °F - 68.4 °F 89% 29.94 in 7.0 mi ENE 8.1 mph - 0.25 in   Overcast
5:13 PM 72.9 °F - 68.9 °F 87% 29.94 in 10.0 mi East 3.5 mph - N/A   Mostly Cloudy
5:34 PM 73.4 °F - 67.8 °F 83% 29.94 in 10.0 mi NNE 3.5 mph - N/A   Mostly Cloudy
5:53 PM 72.7 °F - 68.5 °F 87% 29.95 in 10.0 mi NNW 4.6 mph - N/A   Overcast
6:13 PM 72.5 °F - 68.2 °F 86% 29.95 in 7.0 mi Calm Calm - N/A   Overcast
6:34 PM 72.5 °F - 68.2 °F 86% 29.96 in 10.0 mi Calm Calm - N/A   Overcast
6:53 PM 72.9 °F - 68.9 °F 87% 29.95 in 10.0 mi Calm Calm - N/A   Mostly Cloudy
7:13 PM 72.7 °F - 69.1 °F 88% 29.95 in 10.0 mi Calm Calm - N/A   Overcast
7:34 PM 72.5 °F - 68.5 °F 87% 29.95 in 10.0 mi Calm Calm - N/A   Overcast
7:53 PM 72.1 °F - 68.5 °F 88% 29.95 in 10.0 mi Calm Calm - N/A   Overcast
8:13 PM 72.0 °F - 68.7 °F 89% 29.94 in 10.0 mi Calm Calm - N/A   Overcast
8:34 PM 71.2 °F - 68.4 °F 91% 29.93 in 7.0 mi Calm Calm - N/A   Mostly Cloudy
8:53 PM 70.3 °F - 67.8 °F 92% 29.94 in 1.2 mi Calm Calm - N/A   Scattered Clouds
9:13 PM 69.8 °F - 67.3 °F 92% 29.94 in 2.0 mi Calm Calm - N/A   Mostly Cloudy
9:34 PM 70.7 °F - 68.4 °F 92% 29.95 in 5.0 mi Calm Calm - N/A   Mostly Cloudy
9:53 PM 70.5 °F - 68.4 °F 93% 29.96 in 7.0 mi Calm Calm - N/A   Mostly Cloudy
10:13 PM 71.1 °F - 68.9 °F 93% 29.95 in 7.0 mi Calm Calm - N/A   Overcast
10:34 PM 70.7 °F - 68.4 °F 92% 29.96 in 5.0 mi NE 6.9 mph - N/A   Overcast
10:53 PM 70.3 °F - 67.6 °F 91% 29.96 in 5.0 mi NNE 6.9 mph - N/A   Overcast
11:13 PM 70.0 °F - 67.1 °F 91% 29.97 in 4.0 mi NNE 6.9 mph - N/A   Overcast
11:34 PM 69.8 °F - 66.7 °F 90% 29.97 in 5.0 mi NNE 4.6 mph - N/A   Overcast
11:53 PM 69.8 °F - 66.7 °F 90% 29.96 in 5.0 mi NNE 5.8 mph - N/A   Overcast